Regional Weather Roundup
Issued by NWS

Home | Current Version | Previous Version | Text Only | Print | Product List | Glossary Off
Versions: 1 2 3 4 5 6 7 8 9 10 11 12 13 14 15 16 17 18 19 20 21 22 23 24 25 26 27

000
ASUS45 KTFX 180610
RWRMT
MONTANA REGIONAL WEATHER ROUNDUP
NATIONAL WEATHER SERVICE GREAT FALLS MT
1200 AM MDT FRI AUG 18 2017

NOTE: "FAIR" INDICATES FEW OR NO CLOUDS BELOW 12000 FEET WITH NO
SIGNIFICANT WEATHER AND/OR OBSTRUCTIONS TO VISIBILITY.

MTZ001>007-043-180700-
WEST OF THE DIVIDE

CITY           SKY/WX    TMP DP  RH WIND       PRES   REMARKS
KALISPELL      CLEAR     55  45  68 CALM      30.04S
MISSOULA       CLEAR     65  40  39 CALM      30.09R
BUTTE          MOCLDY    54  36  50 SE9       30.21R
MULLAN PASS    CLEAR     57  36  45 VRB3      30.24S
ANACONDA         N/A     57  36  44 SE6       30.17S
DEER LODGE       N/A     57  39  51 CALM      30.18R
EUREKA           N/A     66  43  42 MISG      30.02S
HAMILTON         N/A     61  41  48 S5        30.12R
LIBBY            N/A     63  43  48 CALM      30.03S
PLAINS           N/A     61  41  47 CALM      30.06S
RONAN            N/A     58  44  59 CALM      30.12R
$$

MTZ008-052>055-180700-
SOUTHWEST MONTANA

CITY           SKY/WX    TMP DP  RH WIND       PRES   REMARKS
BOZEMAN        CLOUDY    54  43  66 S9        30.13S
DILLON         CLEAR     61  32  33 SE6       30.16R
W YELLOWSTONE  CLEAR     55  37  50 SW10      30.27R
ENNIS          PTCLDY    54  39  58 E5        30.22R
THREE FORKS      N/A     57  39  51 CALM      30.10S
TWIN BRIDGES     N/A     62  38  41 CALM      30.12S
$$

MTZ009-010-012-014-046-048-049-054-180700-
EAST SLOPES AND CENTRAL MONTANA

CITY           SKY/WX    TMP DP  RH WIND       PRES   REMARKS
CUT BANK       CLEAR     63  38  39 W10       30.03S
GREAT FALLS    PTCLDY    60  37  42 W5        30.04S
MALMSTROM AFB  PTCLDY    66  37  34 CALM      30.04R
HELENA         PTCLDY    68  38  33 W7        30.09S
AUGUSTA          N/A     59  32  36 W7        30.08F
BOWMANS CRNR     N/A     62  32  32 W9        30.07S
CHOTEAU          N/A     63  37  39 SW3       30.07S
CONRAD           N/A     58  41  53 W3        30.05F
FAIRFIELD        N/A     63  40  42 CALM      30.05S
POWER            N/A     59  34  38 CALM      30.05S
RAYNESFORD       N/A     58  37  44 CALM      30.07S
ULM              N/A     58  37  45 S5        30.04S
$$

MTZ011-013-016-021-045-047-050-051-180700-
NORTH CENTRAL MONTANA

CITY           SKY/WX    TMP DP  RH WIND       PRES   REMARKS
HAVRE          PTCLDY    59  36  42 CALM      29.98R
LEWISTOWN      CLEAR     56  35  45 SE7       30.08S
N BAR RANCH    MOCLDY    59  34  38 W8        30.12F
CHINOOK          N/A     63  43  48 CALM      29.98S
DENTON           N/A     59  34  38 SW9       30.01S
GEYSER           N/A     67  34  29 S12       30.06S
GRASS RANGE      N/A     59  33  37 W6        30.03S
JUDITH GAP       N/A     59  34  38 SW7       30.11S
WINIFRED       MOCLDY    66  35  31 SE8       30.04S
$$

MTZ017>020-022>027-061-062-180700-
NORTHEAST MONTANA

CITY           SKY/WX    TMP DP  RH WIND       PRES   REMARKS
GLASGOW        CLEAR     64  44  48 NE9       29.95R
JORDAN           N/A     57  36  45 W5        29.97S
SIDNEY         CLOUDY    63  52  67 NW3       29.93F
WOLF POINT     PTCLDY    63  46  54 E5        29.94S
MALTA          CLEAR     57  45  62 CALM      29.96S
PLENTYWOOD       N/A     66  52  59 CALM      29.94S
POPLAR           N/A     63  52  67 CALM      29.94S
SCOBEY           N/A     63  48  57 W10       29.98R
$$

MTZ028>42-056>058-180700-
SOUTHCENTRAL AND SOUTHEAST MONTANA

CITY           SKY/WX    TMP DP  RH WIND       PRES   REMARKS
BAKER          CLEAR     60  44  55 CALM      29.98S
BILLINGS       MOCLDY    74  34  23 CALM      30.05S
LIVINGSTON     CLEAR     54  39  57 W3        30.13R
MILES CITY     PTCLDY    69  41  36 NE3       29.97R
BIG TIMBER     PTCLDY    59  37  44 SW7       30.14S
FORSYTH          N/A     66  39  37 CALM      29.98S
HARLOWTON        N/A     61  33  36 MISG      30.10S
LAUREL           N/A     66  34  30 CALM      30.05F
$$

REGIONAL REPORTS...DAKOTAS

CITY           SKY/WX    TMP DP  RH WIND       PRES   REMARKS
WILLISTON      CLEAR     59  54  83 NE3       29.92S
MINOT          TSTM      65  58  78 N7        29.89R
DICKINSON      CLEAR     58  49  72 NW7       29.92R
BEACH            N/A     55  52  88 N5        30.00S
CROSBY           N/A     59  57  94 SW7       29.92F
TIOGA            N/A     57  57 100 W5        29.93F
WATFORD CITY     N/A     57  54  88 CALM      29.92R
BISMARCK       CLEAR     63  59  87 CALM      29.84S
GRAND FORKS    CLEAR     62  60  93 CALM      29.82F
FARGO          CLEAR     62  59  90 CALM      29.84F
BUFFALO SD       N/A     62  44  51 W8        29.91R
RAPID CITY     CLEAR     61  48  62 NW10      29.99R
$$

REGIONAL REPORTS...WYOMING/IDAHO/WASHINGTON

CITY           SKY/WX    TMP DP  RH WIND       PRES   REMARKS
GILLETTE       CLEAR     61  41  47 VRB3      30.08R
SHERIDAN       PTCLDY    55  45  68 S5        30.06S
BUFFALO WY     CLEAR     63  35  35 W5        30.13S
CODY           CLEAR     62  37  39 S5        30.17S
YELLOWSTONE LA   N/A     43  38  82 CALM      30.37R
IDAHO FALLS    CLEAR     64  37  36 SW8       30.15R
SALMON         CLEAR     63  38  39 CALM      30.12R
BOISE          CLEAR     69  36  29 E3        30.04S
SPOKANE        CLEAR     68  41  37 S6        30.05S
$$

REGIONAL REPORTS...ALBERTA

CITY           SKY/WX    TMP DP  RH WIND       PRES   REMARKS
EDMONTON       MOCLDY    59  52  77 SW6       29.90F
CALGARY        PTCLDY    59  48  67 N5        29.98S SMOKE
LETHBRIDGE     CLEAR     61  41  48 S10G17    29.96S
MEDICINE HAT   CLEAR     61  45  55 SE3       29.95R
$$

REGIONAL REPORTS...SASKATCHEWAN

CITY           SKY/WX    TMP DP  RH WIND       PRES   REMARKS
SWIFT CURRENT  PTCLDY    64  43  45 CALM      29.97S
SASKATOON      CLEAR     52  48  87 SW6       29.92R
$$




USA.gov is the U.S. government's official web portal to all federal, state and local government web resources and services.